Контролен ТХ Measurements

Back to Overview

Timestamp Temperature Humidity
8/23/2019 10:41:14 AM 23.1 C 60.0%
8/23/2019 10:34:12 AM 23.1 C 60.0%
8/23/2019 10:27:09 AM 23.0 C 61.0%
8/23/2019 10:20:06 AM 22.9 C 61.0%
8/23/2019 10:13:04 AM 22.8 C 61.0%
8/23/2019 10:06:00 AM 22.7 C 62.0%
8/23/2019 9:58:59 AM 22.5 C 62.0%
8/23/2019 9:51:56 AM 22.4 C 61.0%
8/23/2019 9:44:52 AM 22.2 C 61.0%
8/23/2019 9:37:49 AM 22.2 C 61.0%
8/23/2019 9:30:47 AM 22.2 C 61.0%
8/23/2019 9:23:44 AM 22.2 C 61.0%
8/23/2019 9:16:41 AM 22.1 C 61.0%
8/23/2019 9:09:36 AM 22.1 C 61.0%
8/23/2019 9:02:33 AM 22.0 C 61.0%
8/23/2019 8:55:32 AM 22.0 C 61.0%
8/23/2019 8:48:29 AM 22.0 C 61.0%
8/23/2019 8:41:26 AM 22.0 C 61.0%
8/23/2019 8:34:21 AM 22.0 C 61.0%
8/23/2019 8:27:21 AM 22.0 C 61.0%
8/23/2019 8:20:17 AM 22.0 C 61.0%
8/23/2019 8:13:14 AM 21.9 C 61.0%
8/23/2019 8:06:10 AM 21.8 C 61.0%
8/23/2019 7:59:08 AM 21.8 C 61.0%
8/23/2019 7:52:04 AM 21.7 C 61.0%
8/23/2019 7:45:01 AM 21.7 C 61.0%
8/23/2019 7:37:58 AM 21.7 C 61.0%
8/23/2019 7:30:55 AM 21.7 C 60.0%
8/23/2019 7:23:51 AM 21.7 C 60.0%
8/23/2019 7:16:47 AM 21.8 C 60.0%
8/23/2019 7:09:46 AM 21.8 C 60.0%
8/23/2019 7:02:43 AM 21.8 C 61.0%
8/23/2019 6:55:38 AM 21.8 C 61.0%
8/23/2019 6:48:36 AM 21.8 C 61.0%
8/23/2019 6:41:34 AM 21.8 C 61.0%
8/23/2019 6:34:29 AM 21.8 C 61.0%
8/23/2019 6:27:26 AM 21.8 C 61.0%
8/23/2019 6:20:25 AM 21.8 C 61.0%
8/23/2019 6:13:21 AM 21.8 C 61.0%
8/23/2019 6:06:17 AM 21.9 C 61.0%
8/23/2019 5:59:14 AM 21.9 C 61.0%
8/23/2019 5:52:10 AM 21.9 C 62.0%
8/23/2019 5:45:07 AM 21.8 C 62.0%
8/23/2019 5:38:03 AM 21.8 C 62.0%
8/23/2019 5:30:59 AM 21.8 C 62.0%
8/23/2019 5:23:57 AM 21.8 C 63.0%
8/23/2019 5:16:54 AM 21.8 C 63.0%
8/23/2019 5:09:51 AM 21.9 C 62.0%
8/23/2019 5:02:47 AM 22.0 C 62.0%
8/23/2019 4:55:44 AM 22.0 C 62.0%
8/23/2019 4:48:43 AM 22.0 C 62.0%
8/23/2019 4:41:40 AM 22.0 C 62.0%
8/23/2019 4:34:35 AM 22.0 C 62.0%
8/23/2019 4:27:32 AM 22.0 C 63.0%
8/23/2019 4:20:30 AM 22.0 C 63.0%
8/23/2019 4:13:28 AM 21.9 C 63.0%
8/23/2019 4:06:26 AM 21.9 C 63.0%
8/23/2019 3:59:23 AM 21.9 C 63.0%
8/23/2019 3:52:20 AM 21.9 C 63.0%
8/23/2019 3:45:18 AM 21.9 C 63.0%
8/23/2019 3:38:15 AM 22.0 C 63.0%
8/23/2019 3:31:12 AM 22.0 C 63.0%
8/23/2019 3:24:11 AM 22.1 C 63.0%
8/23/2019 3:17:08 AM 22.2 C 63.0%
8/23/2019 3:10:06 AM 22.2 C 63.0%
8/23/2019 3:03:03 AM 22.2 C 63.0%
8/23/2019 2:55:59 AM 22.2 C 63.0%
8/23/2019 2:48:57 AM 22.2 C 63.0%
8/23/2019 2:41:55 AM 22.2 C 63.0%
8/23/2019 2:34:54 AM 22.3 C 63.0%
8/23/2019 2:27:50 AM 22.3 C 63.0%
8/23/2019 2:20:48 AM 22.3 C 63.0%
8/23/2019 2:13:45 AM 22.3 C 63.0%
8/23/2019 2:06:42 AM 22.3 C 63.0%
8/23/2019 1:59:40 AM 22.2 C 63.0%
8/23/2019 1:52:36 AM 22.2 C 63.0%
8/23/2019 1:45:32 AM 22.2 C 62.0%
8/23/2019 1:38:29 AM 22.2 C 62.0%
8/23/2019 1:31:26 AM 22.2 C 62.0%
8/23/2019 1:24:24 AM 22.3 C 62.0%
8/23/2019 1:17:22 AM 22.4 C 62.0%
8/23/2019 1:10:19 AM 22.5 C 61.0%
8/23/2019 1:03:16 AM 22.6 C 61.0%
8/23/2019 12:56:12 AM 22.6 C 61.0%
8/23/2019 12:49:09 AM 22.6 C 62.0%
8/23/2019 12:42:05 AM 22.5 C 62.0%
8/23/2019 12:35:02 AM 22.5 C 62.0%
8/23/2019 12:28:00 AM 22.5 C 62.0%
8/23/2019 12:20:57 AM 22.4 C 61.0%
8/23/2019 12:13:53 AM 22.5 C 61.0%
8/23/2019 12:06:48 AM 22.6 C 61.0%